Flag for Mexico Weather past 2 weeks in Mexicali, Baja California, Mexico

Now
91 °F

Sunny.


Feels Like: 89 °F
Forecast: 80 / 107 °F
Wind: 5 mph from South

Location: Imperial County Airport

Current Time: Jul 4, 2015 at 9:06:31 AM

Latest Report: Jul 4, 2015 at 7:53 AM


Visibility: 10 mi

Pressure: 29.71 "Hg

Humidity: 28%

Dew point: 54 °F

Location of MexicaliLocation

Historic Weather in Mexicali — Graph

°F

Mexicali temperature yesterday

Maximum temperature yesterday: 107 °F (at 4:53 PM)
Minimum temperature yesterday: 78 °F (at 5:53 AM)
Average temperature yesterday: 95 °F

Past Weeks' High & Low Weather Summary

 TemperatureHumidityPressure
High114 °F (Jun 19, 2:53 PM)79% (Jun 27, 2:53 AM)29.88 "Hg (Jun 27, 2:53 AM)
Low73 °F (Jun 24, 4:53 AM)3% (Jun 19, 3:53 PM)29.59 "Hg (Jun 19, 5:53 PM)
Average93 °F36%29.75 "Hg
* Reported Jun 19 7:53 AM — Jul 4 7:53 AM, Mexicali, Weather by CustomWeather, © 2015

Note: Actual official high and low records may vary slightly from our data, if they occured in-between our weather recording intervals... More about our weather records

Advertising

Mexicali weather history for previous 24 hours

 ConditionsComfort  
Time TempWeatherWind HumidityBarometerVisibility
7:53 AM
Sat, Jul 4
91 °FSunny.5 mph28%29.71 "Hg10 mi
6:53 AM84 °FSunny.3 mph35%29.69 "Hg10 mi
5:53 AM83 °FClear.3 mph37%29.67 "Hg10 mi
4:53 AM85 °FClear.3 mph35%29.67 "Hg10 mi
3:53 AM83 °FClear.8 mph41%29.66 "Hg10 mi
2:53 AM84 °FClear.8 mph40%29.66 "Hg10 mi
1:53 AM85 °FClear.8 mph40%29.66 "Hg10 mi
12:53 AM87 °FClear.9 mph37%29.67 "Hg10 mi
11:53 PM
Fri, Jul 3
90 °FClear.10 mph32%29.67 "Hg10 mi
10:53 PM91 °FClear.8 mph31%29.67 "Hg10 mi
9:53 PM93 °FClear.9 mph29%29.67 "Hg10 mi
8:53 PM98 °FSunny.12 mph24%29.64 "Hg10 mi
7:53 PM104 °FSunny.6 mph16%29.62 "Hg10 mi
6:53 PM107 °FSunny.6 mph11%29.61 "Hg10 mi
5:53 PM107 °FSunny.6 mph12%29.62 "Hg10 mi
4:53 PM107 °FSunny.No wind15%29.64 "Hg10 mi
3:53 PM106 °FSunny.No wind15%29.66 "Hg10 mi
2:53 PM106 °FSunny.7 mph17%29.69 "Hg10 mi
1:53 PM105 °FSunny.7 mph15%29.71 "Hg10 mi
12:53 PM104 °FSunny.6 mph15%29.74 "Hg10 mi
11:53 AM103 °FSunny.10 mph16%29.77 "Hg10 mi
10:53 AM101 °FSunny.3 mph18%29.78 "Hg10 mi
9:53 AM96 °FSunny.5 mph27%29.79 "Hg10 mi
Weather by CustomWeather, © 2015

See weather overviewHow to use our weather pages